Location: Brno
(49.2000°N, 16.6330°E)
Time: 00:16:59
(UTC+02:00)

Transit 4A - Pass Details

Date: 28 July 2021
Orbit: 870 x 974 km, 66.8° (Epoch: 26 September)

Event Time Altitude Azimuth Distance (km) Brightness Sun altitude
Rises 23:57:01 0° 149° (SSE) 3,492 - -20.4°
Reaches altitude 10° 00:01:54 10° 113° (ESE) 2,538 - -20.6°
Exits shadow 00:02:57 11° 102° (ESE) 2,488 9.9 -20.6°
Maximum altitude 00:03:08 11° 100° (E) 2,487 9.9 -20.6°
Drops below altitude 10° 00:04:22 10° 88° (E) 2,533 10.1 -20.7°
Sets 00:09:12 0° 53° (NE) 3,468 11.2 -20.9°
